Regional Weather Roundup
Issued by NWS

Home | Current Version | Previous Version | Text Only | Print | Product List | Glossary On
Versions: 1 2 3 4 5 6 7 8 9 10 11 12 13 14 15 16 17 18 19 20 21 22 23 24 25 26 27 28 29 30 31 32 33 34 35 36 37 38 39 40 41 42 43 44 45 46 47 48 49 50
000
ASUS42 KFFC 230710
RWRGA
WEATHER ROUNDUP FOR GEORGIA
NATIONAL WEATHER SERVICE PEACHTREE CITY GA
300 AM EDT TUE MAY 23 2017

NOTE: "FAIR" INDICATES FEW OR NO CLOUDS BELOW 12,000 FEET WITH NO
SIGNIFICANT WEATHER AND/OR OBSTRUCTIONS TO VISIBILITY.

* = USE WITH CAUTION. THE STATIONS MARKED WITH AN ASTERISK MAY NOT
REPORT WEATHER SUCH AS PRECIPITATION, FOG, OR THUNDER AND ARE NOT
QUALITY CONTROLLED BY NWS.

THE REMARK "TC" DENOTES TEMPERATURE READING IN DEGREES CELSIUS.

GAZ001>058-230800-
NORTH GEORGIA

CITY           SKY/WX    TMP DP  RH WIND       PRES   REMARKS
ATLANTA        LGT RAIN  67  66  97 E5        29.89F
ATHENS         LGT RAIN  67  67 100 CALM      29.89F FOG
CHAMBLEE       LGT RAIN  68  67  96 SE6       29.89F FOG
PEACHTREE CITY LGT RAIN  69  68  96 CALM      29.90F
ROME           CLOUDY    67  67 100 CALM      29.89F
WEST ATLANTA   CLOUDY    69  69 100 CALM      29.89F
GAINESVILLE    LGT RAIN  66  66 100 NE3       29.93F
CARTERSVILLE   CLOUDY    66  66 100 CALM      29.90F FOG


CITY           SKY/WX    TMP DP  RH WIND       PRES   REMARKS
DALTON*        DRIZZLE   64  64 100 CALM      29.90S
MARIETTA       CLOUDY    68  67  96 SE6       29.90S
CANTON*        CLOUDY    66  63  88 CALM      29.92S FOG
$$

GAZ059>098-102>109-230800-
CENTRAL GEORGIA

CITY           SKY/WX    TMP DP  RH WIND       PRES   REMARKS
AUGUSTA-BUSH   CLOUDY    72  70  93 CALM      29.87F
AUGUSTA-DANIEL LGT RAIN  72  67  84 CALM      29.88F
COLUMBUS       CLOUDY    72  69  90 CALM      29.87F
MACON          LGT RAIN  70  68  93 CALM      29.88F
ROBINS AFB     CLOUDY    70  70 100 S5        29.86F


CITY           SKY/WX    TMP DP  RH WIND       PRES   REMARKS
LAGRANGE*      DRIZZLE   69  69 100 CALM      29.89F
SYLVANIA*      MOCLDY    71  71 100 CALM      29.87F
MILLEDGEVILLE* CLOUDY    70  70 100 CALM      29.89S
$$

GAZ099>101-110>166-230800-
SOUTH GEORGIA

CITY           SKY/WX    TMP DP  RH WIND       PRES   REMARKS
SAVANNAH       CLOUDY    72  70  93 SW9       29.87F
VALDOSTA       CLOUDY    74  72  93 S5        29.90F
ALMA           MOCLDY    75  71  87 S6        29.89F
ST SIMONS      PTCLDY    74  70  87 S9        29.90F
FT STEWART     CLOUDY    72  70  94 SW5       29.86F
ALBANY         CLOUDY    74  73  97 CALM      29.90F
HUNTER AFB     CLOUDY    72  72 100 SW7       29.85F
MOODY AFB      CLOUDY    75  71  88 S8        29.88F
BRUNSWICK      PTCLDY    73  72  94 SW8       29.90F


CITY           SKY/WX    TMP DP  RH WIND       PRES   REMARKS
BAINBRIDGE*    MOCLDY    73  72  94 S5        29.88F
MOULTRIE*      CLOUDY    73  72  94 S5        29.90S
VIDALIA*       MOCLDY    72  70  94 SW6       29.88F
WAYCROSS*      MOCLDY    76  76 100 S6        29.90F
DOUGLAS*       CLOUDY    73  70  88 SW6       29.90F
$$



USA.gov is the U.S. government's official web portal to all federal, state and local government web resources and services.